Location: ????????
(60.4333°N, 46.4710°E)
Time: 19:49:12
(UTC+00:00)

Cosmos 1980 Rocket - Pass Details

Date: 25 November 2020
Orbit: 829 x 850 km, 71.0° (Epoch: 16 January)

Event Time Altitude Azimuth Distance (km) Brightness Sun altitude
Rises 15:46:28 0° 297° (WNW) 3,381 6.4 -26.1°
Reaches altitude 10° 15:49:14 10° 309° (NW) 2,447 5.3 -26.4°
Maximum altitude 15:54:06 29° 9° (N) 1,484 3.4 -27.0°
Enters shadow 15:54:11 29° 11° (N) 1,484 3.4 -27.0°
